Weather History for KGEZ - November, 2014

Change the Weather History Date:

Saturday, November 22, 2014

  Actual Average Record
Temperature  
Mean Temperature 45 °F 41 °F  
Max Temperature 57 °F 50 °F 69 °F (2010)
Min Temperature 32 °F 32 °F 13 °F (2008)
Degree Days  
Heating Degree Days 20 24  
Month to date heating degree days 620 431  
Since 1 July heating degree days 991 866  
Cooling Degree Days 0 0  
Month to date cooling degree days 0 0  
Year to date cooling degree days 1080 913  
Moisture  
Dew Point 34 °F    
Average Humidity 63    
Maximum Humidity 76    
Minimum Humidity 49    
Precipitation  
Precipitation 0.04 in 0.13 in 0.97 in (2011)
Month to date precipitation 0.82 2.74  
Year to date precipitation 34.22 39.30  
Sea Level Pressure  
Sea Level Pressure 30.16 in    
Wind  
Wind Speed 12 mph (South)    
Max Wind Speed 20 mph    
Max Gust Speed 25 mph    
Visibility 10 miles    
Events Rain    
T = Trace of Precipitation, MM = Missing Value Source: NWS Daily Summary

Daily Weather History Graph

Daily Weather History Graph

Search for Another Location

Airport or City:

Trip Planner

Search our weather history database for the weather conditions in past years. The results will help you decide how hot, cold, wet, or windy it might be!

Date:

Astronomy

Nov. 22, 2014 Rise Set
Actual Time 7:35 AM EST 5:23 PM EST
Civil Twilight 7:05 AM EST 5:52 PM EST
Nautical Twilight 6:33 AM EST 6:25 PM EST
Astronomical Twilight 6:00 AM EST 6:57 PM EST
Moon 7:30 AM EST (11/22) 5:53 PM EST (11/22)
Length of Visible Light 10h 46m
Length of Day
9h 47m
New Moon, 0% of the Moon is Illuminated
Nov 22
New Moon
Nov 29
First Quarter
Dec 6
Full
Dec 14
Last Quarter
Dec 21
New

Hourly Weather History & Observations

Time (EST) Temp. Windchill Dew Point Humidity Pressure Visibility Wind Dir Wind Speed Gust Speed Precip Events Conditions
12:53 AM 33.1 °F 24.9 °F 18.0 °F 54% 30.33 in 10.0 mi SSE 10.4 mph - N/A   Overcast
1:53 AM 34.0 °F 26.0 °F 19.0 °F 54% 30.32 in 10.0 mi South 10.4 mph - N/A   Overcast
2:53 AM 35.1 °F 28.6 °F 19.9 °F 54% 30.31 in 10.0 mi South 8.1 mph - N/A   Overcast
3:53 AM 36.0 °F 28.5 °F 21.0 °F 55% 30.29 in 10.0 mi South 10.4 mph - N/A   Overcast
4:53 AM 35.1 °F 27.4 °F 26.1 °F 70% 30.27 in 7.0 mi South 10.4 mph - 0.00 in Rain Rain
5:53 AM 36.0 °F 27.5 °F 28.0 °F 73% 30.25 in 10.0 mi South 12.7 mph - 0.01 in   Overcast
6:53 AM 37.0 °F 28.9 °F 30.0 °F 76% 30.24 in 10.0 mi South 12.7 mph - 0.01 in   Overcast
7:53 AM 37.0 °F 28.9 °F 30.0 °F 76% 30.24 in 10.0 mi South 12.7 mph - N/A   Overcast
8:53 AM 37.9 °F 30.5 °F 30.9 °F 76% 30.23 in 10.0 mi South 11.5 mph - N/A   Overcast
9:53 AM 41.0 °F 33.9 °F 34.0 °F 76% 30.22 in 10.0 mi South 12.7 mph - 0.00 in   Overcast
10:53 AM 45.0 °F 38.9 °F 37.0 °F 74% 30.20 in 10.0 mi South 12.7 mph - 0.00 in   Mostly Cloudy
11:53 AM 48.9 °F - 39.9 °F 71% 30.17 in 10.0 mi South 17.3 mph - N/A   Overcast
12:53 PM 53.1 °F - 42.1 °F 66% 30.14 in 10.0 mi South 15.0 mph - 0.00 in Rain Light Rain
1:53 PM 53.1 °F - 44.1 °F 71% 30.11 in 10.0 mi South 8.1 mph - 0.01 in Rain Light Rain
2:53 PM 55.0 °F - 42.1 °F 62% 30.08 in 10.0 mi South 13.8 mph - 0.00 in   Overcast
3:53 PM 57.0 °F - 42.1 °F 57% 30.05 in 10.0 mi South 13.8 mph - N/A   Partly Cloudy
4:53 PM 55.9 °F - 41.0 °F 57% 30.05 in 10.0 mi South 11.5 mph - N/A   Overcast
5:53 PM 54.0 °F - 41.0 °F 62% 30.05 in 10.0 mi South 9.2 mph - N/A   Overcast
6:53 PM 53.1 °F - 41.0 °F 64% 30.04 in 10.0 mi South 8.1 mph - N/A   Overcast
7:53 PM 54.0 °F - 37.9 °F 55% 30.04 in 10.0 mi South 13.8 mph - N/A   Overcast
8:53 PM 54.0 °F - 37.9 °F 55% 30.04 in 10.0 mi South 13.8 mph - N/A   Overcast
9:53 PM 51.1 °F - 39.0 °F 63% 30.04 in 10.0 mi South 9.2 mph - 0.01 in   Overcast
10:53 PM 52.0 °F - 37.9 °F 59% 30.02 in 10.0 mi South 9.2 mph - 0.00 in   Overcast
11:53 PM 51.1 °F - 37.9 °F 61% 30.01 in 10.0 mi South 9.2 mph - 0.00 in Rain Light Rain